Regional Weather Roundup
Issued by NWS

Home | Current Version | Previous Version | Graphics & Text | Print | Product List | Glossary On
Versions: 1 2 3 4 5 6 7 8 9 10 11 12 13 14 15 16 17 18 19 20 21 22 23 24 25 26 27 28 29 30 31 32 33 34 35 36 37 38 39 40 41 42 43 44 45 46 47 48 49 50
000
ASUS43 KLSX 290907
RWRMO
STLRWRMO ALL

WEATHER SUMMARY FOR MISSOURI
NATIONAL WEATHER SERVICE SPRINGFIELD MO
400 AM CDT WED MAR 29 2017

NOTE: "FAIR" INDICATES FEW OR NO CLOUDS BELOW 12,000 FEET WITH NO
       SIGNIFICANT WEATHER AND/OR OBSTRUCTIONS TO VISIBILITY.
       CURRENT SKY AND/OR WEATHER CONDITIONS ARE NOT AVAILABLE FOR
       CHILLICOTHE AND FARMINGTON.

MOZ001>031-035>038-043-044-053-054-291000-
...NORTHERN AND WESTERN MISSOURI...

CITY           SKY/WX    TMP DP  RH WIND       PRES   REMARKS
KANSAS CTY INT TSTM      50  49  96 NE17      29.89F FOG
KANSAS C DTWN  LGT RAIN  52  49  89 NE21G29   29.83F
LEE`S SUMMIT   LGT RAIN  51  50  96 E22G32    29.85F
ST JOSEPH      RAIN      50  49  96 NE14      29.94F FOG
CHILLICOTHE      N/A     51  46  83 NE8       30.00F
KIRKSVILLE     CLOUDY    48  45  89 E16       30.02F

$$
MOZ066>068-077>081-088>096-101>105-291000-
...SOUTHWEST MISSOURI...

CITY           SKY/WX    TMP DP  RH WIND       PRES   REMARKS
SPRINGFIELD    LGT RAIN  55  50  83 SE22G31   29.83S
JOPLIN         CLOUDY    58  55  90 SE16G26   29.79F
BRANSON        CLOUDY    54  52  94 SE14G24   29.88F

$$
MOZ032>034-039>042-045>050-055>058-069>072-291000-
...CENTRAL MISSOURI...

CITY           SKY/WX    TMP DP  RH WIND       PRES   REMARKS
COLUMBIA       CLOUDY    51  47  86 E13       29.94F
JEFFERSON CITY CLOUDY    55  47  74 E10       29.95F
ROLLA          CLOUDY    51  48  89 E20       29.94F
SEDALIA        CLOUDY    53  48  83 E24G33    29.89F
WHITEMAN AFB   TSTM      52  52 100 E12G21    29.90R
WARRENSBURG    RAIN      50  48  93 E13G22    29.88F
OSAGE BEACH    CLOUDY    54  47  77 E14       29.92F

$$
MOZ051-052-059>065-291000-
...EAST CENTRAL MISSOURI...

CITY           SKY/WX    TMP DP  RH WIND       PRES   REMARKS
ST LOUIS INTL  CLOUDY    52  45  77 E12       30.05F
SPIRIT OF STL  CLOUDY    52  47  83 E13       30.03F
ST CHARLES     CLOUDY    50  45  83 NE13      30.05F

$$
MOZ072>076-082>087-097>100-106>115-291000-
...SOUTH CENTRAL AND SOUTHEAST MISSOURI...

CITY           SKY/WX    TMP DP  RH WIND       PRES   REMARKS
CAPE GIRARDEAU CLEAR     47  45  93 E6        30.01F
FARMINGTON     CLOUDY    50  47  89 E6        30.03
POPLAR BLUFF   MOCLDY    53  50  89 NE7       29.99F
WEST PLAINS    MOCLDY    53  49  86 E14       29.92F

$$




USA.gov is the U.S. government's official web portal to all federal, state and local government web resources and services.